SCP
0 0 0 0 0 0 0 0 0 0 0 0 0 0 0 0 0 0 0 0 0 0 0 0 0 0 0 0 0 0 0 0 0 0 0 0 0 0 0 0 0 0 0 0
0 0 0 0 0 0 0 0 0 0 0 0 0 0 0 0 0 0 0 0 0 0 0 0 0 0 0 0 0 0 0 0 0 0 0 0 0 0 0 0 0 0 0 0
0 0 0 0 0 0 0 0 0 0 0 0 0 0 0 0 0 0 0 0 0 0 0 0 0 0 0 0 0 0 0 0 0 0 0 0 0 0 0 0 0 0 0 0
0 0 0 0 0 0 0 0 0 0 0 0 0 0 0 0 0 0 0 1 1 0 0 0 0 0 0 0 0 0 0 0 0 0 0 0 0 0 0 0 0 0 0 0
0 0 0 0 0 0 0 0 0 0 0 0 0 0 0 0 0 0 0 1 1 0 0 0 0 0 0 0 0 0 0 0 0 0 0 0 0 0 0 0 0 0 0 0
0 0 0 0 0 0 0 0 0 0 0 0 0 0 0 0 0 0 0 0 1 0 0 0 0 0 0 0 0 0 0 0 0 0 0 0 0 0 0 0 0 0 0 0
0 0 0 0 0 0 0 0 0 0 0 0 0 0 0 0 0 0 0 0 1 0 0 0 0 0 0 0 0 0 0 0 0 0 0 0 0 0 0 0 0 0 0 0
0 0 0 0 0 0 0 0 0 0 0 0 0 0 0 0 0 0 0 0 1 1 0 0 0 0 0 0 0 0 0 0 0 0 0 0 0 0 0 0 0 0 0 0
0 0 0 0 0 0 0 0 0 0 0 0 0 0 0 0 0 0 0 0 1 1 0 0 0 0 0 0 0 0 0 0 0 0 0 0 0 0 0 0 0 0 0 0
0 0 0 0 0 0 0 0 0 0 0 0 0 0 0 0 0 0 0 0 1 0 0 0 0 0 0 0 0 0 0 0 0 0 0 0 0 0 0 0 0 0 0 0
0 0 0 0 0 0 0 0 0 0 0 0 0 0 0 0 0 0 0 0 1 1 0 0 0 0 0 0 0 0 0 0 0 0 0 0 0 0 0 0 0 0 0 0
0 0 0 0 0 0 0 0 0 0 0 0 0 0 0 0 0 0 0 0 1 1 0 0 0 1 1 1 0 0 0 0 0 0 0 0 0 0 0 0 0 0 0 0
0 0 0 0 0 0 0 0 0 0 0 0 0 0 0 0 0 0 0 0 1 1 0 0 0 1 1 1 0 0 0 0 0 0 0 0 0 0 0 0 0 0 0 0
0 0 0 0 0 0 0 0 0 0 0 0 0 0 0 0 0 0 0 1 1 1 0 0 0 1 1 1 0 0 0 0 0 0 0 0 0 0 0 0 0 0 0 0
0 0 0 0 0 0 0 0 0 0 0 0 0 0 0 0 0 0 0 1 1 1 1 0 0 1 1 1 0 0 0 0 0 0 0 0 0 0 0 0 0 0 0 0
0 0 0 0 0 0 0 0 0 0 0 0 0 0 0 0 0 0 1 1 1 1 1 0 0 0 0 0 0 0 0 0 0 0 0 0 0 0 0 0 0 0 0 0
0 0 0 0 0 0 0 0 0 0 0 0 0 0 0 0 0 0 1 1 0 0 0 0 0 0 0 0 0 0 0 0 0 0 0 0 0 0 0 0 0 0 0 0
0 0 0 0 0 0 0 0 0 0 0 0 0 0 0 0 0 0 0 0 0 0 0 0 0 0 0 0 0 0 0 0 0 0 0 0 0 0 0 0 0 0 0 0
0 0 0 0 0 0 0 0 0 0 0 0 0 0 0 0 0 0 0 0 0 0 0 0 0 0 0 0 0 0 0 0 0 0 0 0 0 0 0 0 0 0 0 0
0 0 0 0 0 0 0 0 0 0 0 0 0 0 0 0 0 0 0 0 0 0 0 0 0 0 0 0 0 0 0 0 0 0 0 0 0 0 0 0 0 0 0 0
0 0 0 0 0 0 0 0 0 0 0 0 0 0 0 0 0 0 0 0 0 0 0 0 0 0 0 0 0 0 0 0 0 0 0 0 0 0 0 0 0 0 0 0
0 0 0 0 0 0 0 0 0 0 0 0 0 0 0 0 0 0 0 0 0 0 0 0 0 0 0 0 0 0 0 0 0 0 0 0 0 0 0 0 0 0 0 0
0 0 0 0 0 0 0 0 0 0 0 0 0 0 0 0 0 0 0 0 0 0 0 0 0 0 0 0 0 0 0 0 0 0 0 0 0 0 0 0 0 0 0 0
0 0 0 0 0 0 0 0 0 0 0 0 0 0 0 0 0 0 0 0 0 0 0 0 0 0 0 0 0 0 0 0 0 0 0 0 0 0 0 0 0 0 0 0
0 0 0 0 0 0 0 0 0 0 0 0 0 0 0 0 0 0 0 0 0 0 0 0 0 0 0 0 0 0 0 0 0 0 0 0 0 0 0 0 0 0 0 0
0 0 0 0 0 0 0 0 0 0 0 0 0 0 0 0 0 0 0 0 0 0 0 0 0 0 0 0 0 0 0 0 0 0 0 0 0 0 0 0 0 0 0 0
Wind_Speed
1 3 2 4 4 3 4 3 2 3 3 3 4 5 5 5 5 6 6 6 6 6 5 6 8 7 7 6 6 6 6 4 4 3 3 3 2 2 2 3 4 5 5 5
3 1 5 4 2 2 4 4 2 2 3 4 4 3 4 5 7 8 9 8 8 6 6 6 7 6 7 7 6 6 6 5 4 3 3 3 2 1 1 2 4 4 5 5
4 3 2 3 2 3 2 4 4 4 2 3 4 0 3 3 3 5 7 9 9 10 10 8 8 6 6 7 7 7 6 5 4 4 4 3 3 3 3 3 3 3 4 5
1 3 2 2 3 4 2 2 5 6 4 1 3 2 5 5 5 7 8 8 10 10 9 9 9 8 8 7 6 7 6 6 5 5 5 5 3 2 1 1 1 3 4 4
2 1 2 2 3 4 3 3 4 4 3 2 1 2 5 4 7 9 9 10 10 10 11 10 10 9 8 7 7 6 6 5 5 5 6 6 4 2 1 2 3 3 4 4
2 1 1 2 0 3 5 6 6 5 3 0 4 4 5 7 12 10 10 11 10 10 10 10 8 8 7 7 6 6 7 5 4 5 5 6 6 4 4 3 2 2 2 3
1 2 0 2 3 3 5 5 3 2 1 4 4 4 8 9 10 12 13 13 12 11 11 10 10 9 8 8 8 7 7 5 5 5 5 5 6 5 5 4 3 2 1 1
1 2 3 2 4 4 3 5 5 4 3 2 1 5 7 6 8 9 10 10 11 12 11 12 12 10 10 9 9 8 8 6 6 6 5 4 5 4 3 3 3 3 2 1
4 3 2 2 3 6 4 3 4 4 1 1 4 5 6 1 5 7 9 10 11 12 12 12 11 10 10 10 9 9 9 7 6 6 5 4 4 4 4 3 3 2 2 2
4 2 1 1 4 2 4 5 4 3 2 2 3 4 4 4 6 8 10 12 11 11 11 11 11 11 10 9 8 8 8 8 7 6 5 5 4 4 4 4 4 3 2 2
3 3 0 1 3 5 3 3 3 3 3 2 2 6 6 9 9 11 12 12 13 13 13 12 11 10 9 8 8 8 8 7 6 6 5 5 4 4 4 4 4 4 3 3
4 5 2 3 3 4 4 5 6 4 3 3 2 8 5 6 8 10 11 11 13 13 12 11 11 10 9 9 9 9 8 8 7 6 6 6 5 5 5 4 4 4 4 4
6 5 3 2 3 1 2 4 5 4 3 3 3 7 4 2 4 6 8 9 10 10 9 9 9 10 10 10 9 9 8 8 7 7 7 6 6 6 5 4 4 4 5 4
7 5 5 6 6 5 4 5 6 5 3 4 6 7 6 3 3 4 6 8 9 10 10 10 10 10 10 10 10 9 8 8 8 7 7 7 6 6 6 5 5 5 5 5
5 4 4 5 5 4 5 6 8 8 8 7 7 7 8 6 6 7 8 8 9 9 10 11 11 10 10 10 9 9 8 8 8 8 8 7 6 6 5 5 5 5 5 5
4 3 2 2 4 5 5 7 8 8 7 7 6 8 7 5 3 5 7 10 10 11 12 12 12 11 11 12 11 10 9 9 9 9 8 7 6 6 6 6 5 5 5 4
4 5 2 3 3 0 4 7 8 7 6 7 8 8 4 3 5 8 9 10 12 13 12 12 13 13 13 12 12 12 11 9 9 9 8 8 8 7 6 6 6 6 5 4
7 5 3 1 2 2 7 4 5 6 5 5 5 5 6 6 6 6 7 10 10 11 11 12 11 11 10 10 9 9 9 10 10 8 8 8 8 8 6 6 6 5 4 4
6 7 4 3 1 5 6 3 3 4 3 3 4 4 3 2 2 2 3 7 10 12 11 11 11 11 10 11 11 11 10 9 9 10 10 9 9 9 8 7 6 4 4 4
3 5 5 3 3 4 6 5 2 4 2 4 3 4 3 4 3 4 4 5 6 6 7 7 7 8 9 10 11 12 11 10 11 11 10 9 9 10 9 8 6 4 4 4
3 2 3 4 3 6 7 4 3 4 5 3 2 3 4 5 6 5 3 3 4 5 6 7 8 9 10 10 12 12 11 13 11 9 9 8 9 9 8 7 5 5 5 5
7 5 4 4 3 7 5 2 4 6 4 2 2 3 4 3 3 2 3 3 3 4 5 6 7 7 7 10 12 11 12 11 9 9 9 9 8 8 7 7 6 5 6 5
5 8 6 7 7 6 3 4 4 4 4 2 3 2 4 3 2 2 3 2 2 4 4 5 6 6 5 8 11 12 10 9 10 10 10 9 8 7 7 8 7 5 5 5
2 1 4 1 3 2 1 1 2 3 4 3 3 3 4 3 3 2 2 2 2 2 3 4 5 6 5 6 8 8 8 10 11 11 10 9 9 7 6 6 6 6 6 6
3 2 3 1 2 2 3 1 1 2 4 4 3 3 3 4 3 2 2 2 2 2 2 4 5 6 6 6 6 6 8 10 10 9 8 8 8 8 7 6 6 8 8 9
2 3 4 4 5 4 3 2 2 4 4 3 4 4 3 3 3 2 2 1 2 2 2 3 3 4 4 5 5 6 8 10 10 8 8 7 6 6 6 6 4 6 6 9
Wind_Direction
63 79 184 218 204 186 164 162 174 178 185 145 160 167 173 172 166 162 162 160 161 163 164 152 146 143 135 128 124 124 121 122 114 101 97 90 72 44 37 39 45 45 45 49
55 227 227 218 220 178 171 159 160 129 158 139 148 178 190 186 186 179 174 175 176 171 156 153 147 149 145 142 138 132 132 130 124 123 123 125 124 89 54 29 35 39 46 47
167 225 215 177 182 173 179 173 169 147 105 89 117 132 233 224 200 190 190 183 180 176 168 163 154 151 146 151 153 146 145 132 124 117 100 83 61 44 34 32 25 22 46 51
209 230 192 154 192 168 180 174 143 138 124 152 148 182 244 216 209 202 198 189 186 178 170 164 157 155 158 160 151 146 142 132 127 121 118 122 119 118 147 104 39 26 37 48
266 209 164 179 205 153 160 137 119 127 120 97 152 163 252 204 211 215 201 192 186 176 170 168 165 162 159 152 147 145 137 133 131 125 129 125 121 130 115 81 61 40 29 38
244 244 164 179 129 123 113 80 64 55 74 199 215 185 247 209 207 201 198 192 183 175 170 166 163 151 149 144 140 141 138 138 135 129 131 133 134 129 117 105 90 49 26 27
331 335 293 130 97 64 94 97 72 31 17 244 218 202 243 222 205 196 191 187 180 174 167 163 160 159 157 153 151 151 148 149 146 134 136 143 142 140 143 146 136 119 67 41
143 280 239 184 156 154 147 134 150 173 207 271 251 231 254 236 202 189 182 176 172 173 171 170 170 168 166 163 158 155 156 157 154 145 146 146 142 139 143 148 145 145 149 152
176 235 261 179 139 136 134 150 164 133 172 246 270 278 302 241 168 173 174 170 173 175 175 173 172 173 172 169 168 165 161 159 160 156 149 147 147 142 142 141 133 136 143 130
157 180 279 159 84 62 136 141 105 114 151 245 275 255 237 218 188 183 181 182 181 178 177 175 175 177 177 175 168 164 163 166 165 161 160 157 155 150 145 129 128 131 131 115
136 140 286 88 183 174 137 127 126 134 170 178 250 267 226 205 193 188 192 189 183 181 181 179 179 179 175 168 164 165 168 164 165 164 162 155 154 146 136 133 137 133 122 120
146 122 170 243 249 185 172 175 155 157 205 195 215 269 258 204 196 189 190 188 183 182 181 177 175 169 170 172 171 171 172 170 171 164 158 159 154 142 137 137 137 129 124 122
140 119 100 351 336 242 216 199 175 153 147 184 205 267 299 195 193 189 183 182 181 177 174 171 170 172 176 176 176 174 174 173 168 158 156 155 155 151 151 149 141 131 128 121
125 128 160 190 210 195 215 216 191 166 180 214 226 254 289 271 203 194 184 177 176 176 176 174 178 180 180 178 177 175 175 169 164 159 158 161 167 165 160 152 144 139 134 127
121 154 199 218 222 202 220 222 208 198 200 202 232 237 247 233 207 197 185 173 169 174 179 180 183 185 181 177 177 175 174 171 165 162 165 173 168 157 150 147 144 137 133 134
127 158 184 265 238 230 246 238 225 221 217 220 240 257 244 218 192 183 178 174 178 184 188 187 186 185 185 184 180 177 176 174 166 169 173 167 157 153 154 152 143 134 128 128
152 143 133 271 291 105 263 233 215 218 215 197 219 235 237 203 194 195 189 185 189 190 190 190 190 190 190 188 182 181 178 169 169 172 170 166 163 160 161 155 144 142 142 136
149 136 139 205 15 241 249 243 211 212 234 213 218 228 206 204 204 203 191 187 196 194 190 191 191 191 189 181 176 171 165 168 171 171 171 170 165 162 158 154 155 154 146 146
151 139 133 137 206 283 297 290 202 174 270 241 203 222 211 170 87 331 233 201 199 193 190 191 189 184 179 176 172 164 167 169 170 175 176 174 167 163 162 165 167 160 149 150
108 116 127 138 164 238 259 268 246 109 322 289 190 188 188 124 131 249 242 208 204 190 184 181 173 163 172 176 166 165 172 175 183 183 179 173 169 168 171 173 167 158 153 158
119 105 147 163 198 255 255 269 84 121 229 263 188 172 160 165 196 220 203 189 188 174 172 167 161 170 180 170 164 171 176 189 189 174 165 166 169 171 170 163 158 153 151 148
170 170 186 160 183 251 256 138 163 203 216 203 144 134 134 164 187 166 147 154 154 153 152 159 163 174 172 166 168 176 189 188 165 158 162 167 168 171 164 156 158 157 154 156
183 186 180 181 207 233 208 186 205 160 148 160 132 129 126 124 135 142 141 145 142 148 150 156 162 163 165 172 175 184 189 164 157 161 168 170 169 170 162 164 166 162 165 170
276 147 124 155 275 273 300 92 102 128 133 138 132 124 106 112 116 120 127 132 130 135 146 149 149 158 174 180 183 188 169 159 161 168 172 170 171 172 171 173 175 176 181 185
236 125 116 160 269 358 1 7 126 104 100 93 85 87 101 110 107 124 134 154 161 154 152 149 161 174 186 181 181 170 160 159 162 168 171 173 177 178 181 186 191 192 200 195
221 158 153 206 222 178 224 256 119 102 101 107 94 67 62 96 114 108 122 149 151 151 145 146 159 172 181 172 172 168 164 164 164 168 175 179 178 179 181 184 201 223 213 212